Location: Ebenezer
(18.2167°N, 63.0667°W)
Time: 11:22:05
(UTC+00:00)

Genesis I - Pass Details

Date: 26 January 2020
Orbit: 496 x 527 km, 64.5° (Epoch: 25 February)

Event Time Altitude Azimuth Distance (km) Brightness Sun altitude
Rises 23:38:08 0° 209° (SSW) 2,645 7.4 -22.5°
Reaches altitude 10° 23:40:20 10° 212° (SSW) 1,759 6.5 -23.0°
Maximum altitude 23:44:15 66° 295° (WNW) 575 3.5 -23.9°
Enters shadow 23:44:19 66° 302° (WNW) 576 3.4 -24.0°
